Theta_e
343 342 343 342 341 343 341 338 337 335 336 334 336 338 338 338 337 337 339 340 339 339 339 338 340 340 336 335 334 335 337 338 338 337 339 337 338 337 335 334 332 332 331 331 331 331 331 330 330 332 330 330 330 329 330 329 329 329 328 328 327 327 327 327 325 324 324 325 324 325 326 326 326 326 325 325 324 323 323 323 323 323 323 323 323
343 341 340 342 342 344 343 340 338 335 336 337 338 338 338 338 337 337 336 340 340 342 340 341 338 338 336 334 336 335 337 337 337 337 337 339 339 339 337 334 334 333 332 332 332 331 332 330 331 332 330 331 331 330 330 330 331 330 329 329 328 328 328 329 328 327 326 326 326 325 325 326 326 326 325 325 325 325 325 325 325 325 325 325 325
343 342 342 340 342 343 342 342 340 340 339 337 339 340 340 339 340 341 341 342 341 341 340 342 340 339 336 336 337 338 338 339 338 338 337 339 339 340 336 337 335 334 334 333 333 332 333 332 332 332 332 331 331 332 331 331 331 332 331 330 329 329 328 329 329 329 328 328 328 328 328 327 326 326 326 326 326 326 326 326 326 326 327 327 327
345 342 343 342 341 341 343 344 345 343 344 343 342 342 342 341 342 343 344 344 343 342 343 341 340 337 336 335 338 339 337 337 338 338 339 339 341 340 340 338 337 336 335 334 334 334 333 333 333 333 332 333 333 332 332 332 332 332 333 332 331 331 330 330 330 330 330 329 329 329 329 328 328 327 327 327 327 327 327 327 328 328 328 328 329
346 346 344 342 343 344 343 346 345 346 348 346 344 344 344 344 345 345 343 344 344 344 340 343 342 340 338 338 341 338 339 337 338 339 339 339 339 340 341 340 341 338 337 335 335 335 335 335 335 335 334 335 335 334 333 333 333 333 333 335 334 333 332 332 331 331 331 331 330 330 329 329 329 329 329 328 328 328 328 328 329 329 329 329 330
344 346 343 343 344 344 344 344 345 346 347 345 343 343 343 344 343 343 342 342 341 343 342 340 339 339 339 339 342 343 343 341 338 339 339 340 340 340 340 339 340 341 338 337 336 335 336 336 336 336 335 335 336 336 335 335 335 334 334 335 336 335 334 334 333 333 333 332 332 331 331 331 330 330 330 330 329 329 329 329 329 330 330 330 331
347 345 345 342 343 343 343 344 347 346 343 344 346 347 347 345 343 342 342 342 340 340 340 341 339 338 339 344 341 340 344 341 341 339 338 341 342 340 341 339 340 341 339 340 338 337 336 336 337 337 337 337 337 336 336 337 336 335 335 336 337 337 336 335 335 334 334 334 333 333 333 332 332 332 331 331 331 331 330 330 330 330 331 331 332
350 347 345 343 341 342 341 346 347 346 343 344 346 347 347 345 347 346 342 340 340 340 341 339 340 340 342 344 344 344 343 343 343 341 342 341 341 342 342 341 342 341 341 340 341 339 338 337 337 337 338 338 338 339 337 337 338 337 337 338 338 337 339 337 336 336 335 335 335 335 335 334 334 333 333 333 333 332 332 331 331 331 332 332 332
352 351 351 349 344 345 343 348 347 345 345 349 349 349 349 345 347 348 344 344 341 336 338 340 340 341 342 341 344 345 345 345 345 345 341 343 343 341 342 341 342 340 343 343 343 342 341 339 338 338 337 338 338 339 340 339 339 339 338 338 338 338 340 340 338 338 337 337 337 336 336 336 336 335 335 335 334 334 333 333 333 333 333 333 333
351 351 353 351 349 347 347 349 346 347 349 350 351 350 350 349 344 343 341 341 340 336 339 339 338 338 341 342 345 345 345 346 346 345 345 342 343 343 343 344 342 341 341 343 343 344 344 340 340 339 339 339 339 339 340 340 339 339 340 340 340 339 339 343 340 340 339 339 338 338 338 337 337 337 336 336 336 336 335 335 335 335 335 335 335
352 352 351 351 350 350 350 351 348 347 349 348 347 349 350 349 347 344 344 342 345 343 343 342 341 340 340 342 345 347 347 347 347 345 346 345 343 343 342 345 345 344 344 344 343 345 344 346 341 340 339 340 339 340 341 341 340 339 340 341 340 341 341 341 343 341 341 340 340 339 339 339 339 338 338 338 338 337 337 336 336 336 336 336 337
352 352 352 351 350 351 351 351 349 348 346 345 344 345 348 349 348 346 347 345 345 345 345 343 342 342 342 344 345 346 347 347 348 347 347 346 345 345 344 344 346 346 345 344 343 344 345 345 344 343 342 341 340 339 341 341 341 341 341 341 341 342 342 342 343 343 343 342 341 341 340 340 340 340 339 339 339 339 338 338 338 338 338 338 338
352 352 351 350 349 351 351 350 350 347 347 346 346 348 350 349 349 348 345 343 342 343 345 345 341 340 342 344 345 346 347 345 345 346 345 347 346 344 344 345 345 345 346 346 345 345 344 346 346 346 344 345 344 340 339 340 341 341 342 341 341 342 342 342 343 343 343 343 343 342 342 341 341 341 341 340 340 340 340 339 339 339 339 339 339
351 352 352 353 350 349 350 350 350 349 350 348 349 349 349 348 348 346 347 344 341 342 346 342 336 333 333 335 339 342 346 345 344 345 346 347 347 347 347 345 343 345 347 347 347 345 345 347 348 347 346 346 346 346 343 342 341 339 341 342 343 343 343 343 342 343 343 343 344 344 343 343 342 342 342 342 341 341 341 340 340 340 340 340 340
350 350 351 352 351 350 350 349 349 349 348 348 349 348 348 348 348 345 343 344 342 345 348 346 336 336 339 335 329 330 337 340 343 342 343 344 345 345 347 344 342 345 346 347 345 346 345 346 346 348 349 348 347 346 347 344 343 341 340 341 342 343 344 344 344 343 343 343 343 344 344 344 344 344 343 343 342 342 342 341 341 341 340 340 339
349 348 349 350 351 349 349 349 350 350 348 347 347 346 349 348 347 347 346 340 337 340 346 348 343 338 329 327 331 331 324 327 336 341 341 342 343 344 344 346 347 346 348 347 346 346 346 347 346 348 348 349 349 350 348 348 344 341 340 341 341 342 342 343 344 344 344 345 344 344 344 344 344 344 344 343 343 343 342 342 342 341 341 341 340
348 348 347 349 351 350 349 349 349 349 348 346 347 347 347 348 347 346 345 342 336 339 342 346 345 345 338 332 330 326 324 329 331 335 339 339 339 340 344 343 347 348 347 347 346 347 347 347 348 347 349 349 350 349 350 350 349 347 345 341 341 341 341 342 342 343 343 343 344 344 344 344 344 344 344 344 343 343 343 343 342 341 341 341 340
347 348 346 347 348 350 349 348 348 348 347 346 347 348 348 347 346 346 344 346 342 338 337 342 344 346 344 341 337 330 328 332 328 325 340 342 341 338 341 346 346 346 344 343 343 344 347 348 350 350 350 349 348 349 349 349 349 350 350 349 341 340 340 340 341 341 341 342 342 343 344 344 344 344 344 344 344 344 343 343 342 342 340 339 339
349 347 347 347 348 349 349 348 347 348 347 347 345 344 341 342 346 345 344 344 344 338 338 338 341 342 343 343 343 342 337 332 329 332 328 338 344 339 339 339 343 341 340 339 343 344 348 348 348 348 349 350 349 349 349 348 345 346 343 343 342 342 341 341 342 342 343 343 343 344 344 344 344 344 344 343 344 344 344 343 340 339 339 339 339
347 346 346 347 347 347 348 348 347 348 346 345 346 347 346 346 347 347 346 345 343 340 338 338 335 336 341 342 343 342 338 339 336 330 329 327 332 336 338 342 343 345 342 340 339 342 346 349 347 347 347 347 350 349 348 347 349 350 348 342 342 341 340 341 341 342 343 343 343 343 344 343 343 343 342 343 343 341 340 339 338 338 338 337 337
346 347 345 345 346 347 347 346 347 346 344 344 345 345 347 348 348 345 344 345 344 343 341 338 338 335 337 339 339 338 338 339 336 336 330 329 329 331 334 340 343 344 344 344 343 342 345 345 346 347 348 349 349 348 347 348 349 352 348 343 342 340 340 341 342 342 343 344 344 343 344 342 343 342 342 342 342 340 339 338 338 337 336 336 336
345 344 345 343 345 347 347 346 347 346 344 344 343 344 346 346 346 348 346 344 345 344 341 340 340 340 338 338 337 337 337 336 337 335 334 334 328 329 333 334 333 339 346 343 342 341 342 346 347 346 346 347 348 348 349 349 351 348 345 340 343 342 341 342 343 344 344 344 344 343 343 342 342 341 342 342 341 339 338 337 337 336 336 335 334
346 346 345 344 345 347 347 346 347 346 344 344 343 343 342 343 343 345 346 344 342 344 344 344 342 341 342 340 338 337 335 334 334 336 335 334 332 331 334 335 335 334 339 342 342 339 339 343 343 345 348 348 347 348 349 350 343 339 333 337 341 342 342 343 345 344 344 343 343 343 342 342 342 342 342 341 340 338 337 335 334 334 335 334 333
346 347 348 346 348 348 348 347 346 348 346 347 345 343 343 342 344 342 341 342 343 343 344 343 342 341 342 342 340 341 340 339 338 337 336 334 334 332 330 333 334 333 337 342 342 339 339 339 341 344 346 346 347 349 348 349 346 331 342 333 337 341 343 345 345 344 344 343 343 342 343 343 343 342 341 340 338 337 335 333 332 331 331 331 331
341 341 346 348 348 348 349 348 347 348 348 347 346 343 342 342 341 341 338 339 340 341 341 344 343 341 340 342 342 341 340 341 341 340 339 337 335 330 332 334 331 332 333 333 334 338 338 339 340 346 344 346 347 347 349 348 350 337 334 333 332 338 343 345 344 344 343 343 342 342 342 342 341 340 339 337 335 334 333 332 331 331 330 329 327
340 341 342 348 347 347 349 348 349 348 348 348 347 346 347 345 345 343 341 341 341 342 342 344 344 345 345 342 341 340 341 342 342 341 339 337 333 332 332 333 334 332 335 335 335 334 338 339 342 345 343 344 346 349 349 349 351 330 329 341 338 334 340 343 344 343 343 342 341 340 340 339 338 337 335 333 332 331 330 330 329 328 328 325 324
339 342 343 343 343 344 344 344 345 347 347 348 347 347 347 345 344 343 341 341 341 341 340 341 341 342 344 343 341 341 340 342 342 341 341 339 336 335 333 329 330 333 332 334 334 334 334 336 338 339 342 347 348 350 349 350 343 331 332 352 348 330 333 336 339 341 341 340 339 339 338 337 336 334 332 331 330 329 329 328 327 326 324 323 322
341 341 342 343 342 343 343 343 344 344 345 344 343 343 345 344 343 341 340 341 340 340 340 339 339 341 342 343 342 340 342 342 343 342 342 342 341 339 336 334 328 324 329 330 332 331 335 335 337 341 342 342 345 348 345 345 349 329 333 351 341 336 329 331 333 336 338 340 339 337 336 335 333 331 330 330 329 329 328 328 326 324 323 322 321
341 342 342 342 342 343 342 342 343 345 347 347 344 342 342 343 343 343 342 342 340 339 339 338 339 339 340 341 340 340 342 344 343 342 342 343 342 341 339 335 334 329 326 326 330 332 332 335 330 336 340 344 343 347 347 346 340 342 345 342 340 340 326 325 327 331 335 337 337 336 335 333 331 330 329 329 329 329 328 326 324 322 321 321 320
340 341 342 341 341 342 341 341 342 342 342 342 342 341 341 341 341 340 340 343 341 340 339 338 338 339 338 338 339 338 340 341 341 342 342 342 341 341 340 339 338 332 330 326 327 334 334 338 336 332 339 340 341 343 344 346 331 341 346 342 339 337 323 322 323 327 330 328 328 330 331 331 331 330 329 329 329 329 327 325 323 322 320 319 318
338 340 341 340 340 340 340 339 340 340 340 340 340 339 339 341 341 339 339 340 338 337 338 338 338 339 337 335 337 337 338 338 339 340 339 340 340 341 340 341 340 339 335 331 326 332 337 336 339 338 336 339 342 341 343 343 338 342 345 341 338 326 324 326 322 323 323 321 322 322 325 329 329 328 328 328 328 327 325 323 321 319 318 317 317
339 339 338 338 339 339 338 338 338 338 338 338 339 339 339 338 339 338 338 338 337 336 337 338 336 339 339 334 334 334 336 337 337 337 339 339 339 339 339 340 339 339 338 335 331 329 338 338 337 337 339 340 338 338 342 337 339 332 344 343 337 324 334 333 321 320 319 317 318 319 320 325 326 326 326 326 325 323 321 319 317 315 314 315 315
338 338 337 336 337 337 337 337 336 337 336 337 337 337 337 337 339 339 339 336 335 335 336 337 338 338 336 336 335 336 335 336 334 333 335 335 335 336 339 338 337 339 338 336 332 331 333 342 341 338 339 339 337 338 338 337 341 342 336 343 340 340 338 335 333 318 317 315 315 314 314 315 317 319 323 323 321 319 316 313 310 312 313 313 313
336 336 335 336 336 335 335 334 335 334 335 335 335 336 335 334 334 334 334 334 335 333 336 335 336 336 335 334 335 337 338 335 332 332 333 336 333 332 335 335 335 336 338 336 335 333 330 337 339 343 341 341 337 336 338 336 339 338 340 340 340 340 338 334 332 332 315 314 312 311 310 310 311 312 316 319 313 307 306 307 307 309 310 310 309
336 336 335 335 334 334 333 333 332 332 333 333 334 334 333 331 330 332 332 332 331 331 331 331 332 334 334 335 335 335 337 333 332 334 333 332 335 333 331 333 333 334 336 337 335 333 333 333 337 337 339 340 339 337 335 340 336 337 336 339 340 339 338 336 334 332 312 312 310 309 309 309 309 309 309 309 306 305 304 304 304 303 304 304 304
335 335 335 334 333 333 331 331 331 331 331 332 332 332 330 330 329 328 328 329 329 328 328 327 327 330 332 333 333 334 334 332 335 335 335 335 334 335 336 337 335 331 334 333 334 334 334 333 336 335 338 338 339 340 337 341 334 337 337 338 339 338 336 335 334 331 316 309 308 308 307 307 307 306 305 305 304 304 303 303 303 303 303 303 303
333 334 334 333 332 330 331 329 329 329 330 330 330 329 330 329 328 327 325 324 324 323 324 324 323 324 325 327 329 332 333 332 333 335 332 331 330 333 335 334 333 331 332 334 332 332 333 332 333 334 339 339 339 339 339 337 338 339 339 336 335 335 334 333 332 327 312 308 307 307 306 306 306 305 304 304 303 303 303 303 303 303 303 302 302
333 332 332 331 330 329 329 328 328 328 329 328 326 326 326 327 326 325 323 322 322 321 322 322 322 323 324 324 325 327 329 330 331 333 332 332 332 333 331 332 336 337 334 332 335 335 332 331 331 331 336 337 338 339 338 338 337 335 334 335 335 334 331 329 328 322 321 315 312 309 306 305 304 304 304 304 303 303 303 303 303 303 303 302 302
331 330 330 329 330 329 327 328 327 328 327 327 327 326 325 324 323 323 324 323 322 323 322 321 322 323 323 323 325 326 327 327 329 330 332 332 332 332 332 332 334 333 335 332 330 330 329 331 332 332 332 336 337 334 337 339 339 334 329 328 328 331 331 329 325 322 320 314 309 308 308 307 307 306 303 303 303 303 303 303 304 304 303 302 301
329 328 328 328 329 328 327 327 327 328 328 327 326 325 324 323 323 323 323 323 322 323 324 324 324 324 323 323 324 324 325 326 327 329 331 330 331 331 331 333 331 333 330 333 331 330 332 330 328 328 328 331 334 337 337 338 335 333 330 328 325 326 327 327 324 319 316 311 307 306 309 307 307 306 303 304 305 305 304 305 305 305 304 303 302
331 330 330 329 327 326 326 327 326 327 328 327 327 325 324 323 323 323 322 321 321 320 320 321 322 322 323 323 324 324 325 323 321 318 319 318 322 324 328 330 331 331 330 330 329 329 330 331 330 329 329 330 330 330 332 332 332 331 331 331 329 328 328 324 322 320 313 308 307 307 307 307 306 306 306 306 307 307 307 307 307 305 305 303 302
332 331 330 329 328 326 325 325 326 327 327 327 326 319 318 323 323 322 322 322 321 321 320 320 320 321 321 323 323 321 320 319 318 314 310 311 314 319 323 326 326 326 326 327 326 327 328 327 328 328 328 325 327 331 333 335 336 336 332 329 327 327 326 324 322 318 314 310 307 306 306 309 308 306 307 306 307 309 309 309 309 308 305 302 301
328 329 330 329 328 326 325 324 324 326 326 326 312 303 303 308 321 322 321 320 321 321 320 320 319 319 320 320 321 320 320 320 319 311 308 307 307 307 308 312 317 323 324 323 324 325 326 326 329 329 326 327 330 332 330 333 335 335 332 329 330 327 323 319 315 316 315 312 309 306 306 310 309 305 306 307 308 309 309 311 306 305 302 301 301
330 329 329 328 327 326 325 324 324 324 325 319 300 299 298 300 311 322 322 321 321 321 320 319 319 319 318 319 320 320 321 321 321 323 317 309 305 304 304 304 304 305 308 319 321 322 325 326 325 327 328 329 330 332 332 331 332 332 331 330 329 328 324 322 320 315 316 314 309 307 306 309 309 307 307 308 308 310 313 309 302 302 301 301 300
328 327 328 328 327 326 325 323 323 323 325 305 300 299 298 298 299 313 321 322 321 320 320 320 319 318 318 317 318 319 320 319 320 321 323 324 312 305 306 306 306 304 300 298 304 321 324 323 325 325 327 328 329 331 333 333 330 329 329 328 329 329 327 325 324 320 316 314 310 308 306 307 309 308 307 310 310 313 308 304 303 301 301 300 300
325 326 327 328 328 325 323 322 322 323 324 307 299 298 298 296 297 302 322 321 322 321 320 319 319 318 318 318 317 318 320 321 321 321 321 320 322 323 322 324 325 322 308 301 300 301 311 322 322 322 325 329 328 332 335 335 327 332 332 327 331 328 326 326 328 324 318 314 311 310 307 307 309 309 308 310 311 315 314 306 301 301 300 299 299
326 325 326 327 327 325 324 322 322 321 323 302 298 297 297 296 295 298 321 322 322 321 321 320 319 318 318 318 318 318 318 320 320 320 321 321 320 320 320 320 321 322 325 325 324 321 319 321 324 324 325 327 329 331 335 337 332 331 331 329 330 332 332 330 327 326 319 317 317 313 305 307 312 311 313 316 315 311 309 301 300 300 299 299 298
327 328 328 328 325 325 325 322 321 320 329 296 297 296 296 295 294 314 320 321 320 320 320 320 319 319 319 319 318 318 319 319 317 307 313 320 318 317 317 318 320 321 322 321 313 314 325 328 327 327 328 329 317 330 333 334 335 335 331 330 334 328 321 319 319 318 318 317 316 313 309 306 313 310 309 312 310 306 306 307 300 300 299 298 298
327 326 330 327 325 326 327 323 322 320 326 304 296 295 296 294 299 318 320 319 319 319 318 318 317 317 317 318 318 317 317 319 312 299 298 311 317 316 316 317 318 319 319 323 311 304 304 304 303 302 302 303 302 302 302 302 321 326 329 325 325 324 323 319 317 315 315 317 318 316 310 306 310 309 306 308 307 305 306 304 303 300 298 298 297
327 329 325 325 325 325 324 322 321 320 322 311 294 296 295 293 307 319 319 318 318 317 317 318 317 316 316 316 316 316 315 317 294 295 294 308 316 316 317 317 317 317 319 321 323 322 305 302 303 302 302 303 302 302 302 303 302 309 327 321 325 325 321 321 318 316 318 315 315 319 309 306 308 307 306 308 307 308 306 304 302 300 298 298 297
329 330 328 325 322 323 324 323 323 323 321 315 294 295 295 294 304 319 318 317 316 315 314 314 315 314 315 316 316 314 316 312 299 298 294 305 314 314 316 316 314 315 318 321 321 321 323 324 325 323 319 314 319 322 322 306 304 311 325 326 327 324 321 321 321 318 312 310 315 319 310 307 305 305 304 302 302 306 308 304 301 300 299 299 298
Wind_Speed
5 5 4 4 5 5 5 5 6 6 5 4 6 6 5 5 4 4 3 2 1 1 1 3 2 2 2 3 3 3 3 2 3 3 3 2 2 11 11 8 5 5 4 6 6 8 7 5 5 7 7 6 6 5 6 6 6 6 7 7 6 6 6 5 5 5 5 5 5 6 6 6 6 6 5 6 5 5 6 6 6 7 8 8 8
4 4 5 4 4 5 4 5 5 6 6 5 4 5 5 4 4 4 2 2 1 2 1 2 2 2 2 3 2 2 2 2 2 3 4 2 2 8 12 9 8 7 6 6 7 6 7 7 5 7 6 8 6 6 5 6 8 8 8 8 8 8 7 7 6 6 6 7 6 6 6 6 6 6 6 6 5 6 6 7 7 7 8 8 9
5 4 5 5 5 5 5 5 6 6 5 5 4 4 3 3 2 0 1 1 0 0 1 1 1 3 3 3 3 2 2 1 2 2 3 3 3 3 11 12 10 8 8 9 7 7 9 9 7 8 8 8 8 8 7 7 6 10 10 10 9 9 8 8 8 8 7 8 8 8 7 7 7 7 7 6 6 6 6 6 7 6 6 7 7
4 5 5 5 6 6 5 5 5 5 5 5 4 2 3 2 2 3 3 2 1 2 1 1 2 3 4 4 4 3 2 2 2 2 1 2 2 2 3 8 12 11 10 9 9 9 6 7 9 8 10 10 10 8 8 7 8 7 12 12 11 10 10 9 9 9 8 8 8 8 8 8 8 8 8 7 6 6 7 8 9 8 9 10 11
4 4 5 5 5 5 5 4 4 4 4 3 4 4 2 2 3 3 3 2 2 2 2 2 2 3 2 4 2 2 2 2 2 2 2 2 2 2 3 4 7 14 13 12 11 10 9 8 9 10 10 12 11 9 9 9 9 9 9 14 12 12 11 11 10 10 10 10 9 9 9 9 9 9 9 9 8 8 8 9 11 11 12 12 12
5 5 4 5 5 5 5 5 4 3 3 2 3 3 3 2 1 2 2 3 4 3 3 3 3 3 3 2 2 1 2 2 2 2 2 2 2 2 3 3 4 6 10 14 13 12 11 10 10 10 10 8 11 13 11 10 9 9 10 11 14 13 13 12 12 11 11 11 10 11 10 10 10 10 10 10 10 10 10 11 12 12 12 13 13
3 4 4 4 5 5 4 5 4 4 3 3 3 3 2 2 2 3 2 2 3 3 2 1 2 3 2 2 1 2 1 2 1 2 2 2 2 3 3 3 2 3 4 8 14 14 13 12 12 11 11 10 11 9 9 11 9 9 10 12 11 14 14 13 12 12 12 12 12 11 11 11 11 12 11 11 11 11 12 12 13 14 14 14 14
3 4 3 4 5 5 5 4 5 4 2 3 3 3 2 2 3 2 1 2 5 5 4 3 2 2 1 2 1 1 1 2 2 2 3 3 3 3 3 3 3 3 2 2 5 11 16 14 13 13 12 12 12 11 11 11 10 10 11 12 14 10 14 13 13 13 13 13 13 13 12 12 12 13 13 12 12 12 13 13 14 15 15 15 15
3 3 3 3 3 4 5 5 5 4 4 3 4 3 3 2 2 2 2 1 9 4 3 2 2 3 3 3 2 2 3 2 2 2 3 3 3 4 4 3 4 4 4 4 3 4 15 15 15 14 14 13 13 13 13 12 12 12 12 13 10 9 10 14 13 13 13 13 14 13 13 13 13 13 13 13 13 13 13 13 13 14 15 15 15
3 3 3 2 2 3 3 5 6 4 4 4 4 3 3 3 5 1 2 4 7 1 2 1 1 1 2 2 2 3 3 3 3 3 3 4 4 4 4 4 4 4 4 4 4 4 5 13 15 15 14 14 14 14 14 14 13 13 14 14 13 12 10 11 13 13 13 14 14 14 14 14 14 14 14 14 14 14 14 14 14 14 14 15 15
3 4 3 3 2 2 3 3 5 4 4 4 4 4 3 3 3 6 7 8 3 2 1 1 2 2 3 3 4 4 4 4 4 4 4 4 4 3 5 5 4 5 6 5 4 4 4 5 8 9 11 17 15 15 16 15 14 14 14 15 14 13 12 11 10 12 13 13 14 14 14 14 15 15 15 14 14 14 14 15 15 15 15 15 15
4 4 3 3 3 2 2 2 4 5 5 5 5 4 4 3 3 3 2 2 2 2 2 3 3 4 4 4 6 5 6 5 5 5 5 4 5 5 5 4 5 5 6 6 5 6 6 6 6 6 6 13 16 17 16 15 14 15 16 16 15 15 14 13 12 11 11 12 13 13 14 14 14 15 15 15 15 15 15 15 16 16 16 17 16
4 4 3 3 3 2 2 2 3 4 4 5 4 3 2 2 2 2 2 2 3 3 1 3 3 3 3 5 5 6 6 6 6 6 6 5 5 5 4 4 4 5 5 5 5 6 6 6 6 6 6 4 11 15 16 16 16 15 16 17 17 16 16 15 13 12 12 11 12 13 13 13 14 14 15 14 15 15 15 15 15 16 16 16 16
4 4 3 3 3 2 2 3 3 3 3 4 4 3 3 3 3 3 2 2 2 1 0 4 4 3 3 3 4 5 4 5 5 5 5 5 5 5 5 5 6 5 5 4 5 6 6 6 6 6 6 6 6 7 10 12 14 16 16 17 17 17 17 16 15 14 13 12 12 11 11 12 13 14 14 14 14 15 15 14 15 15 15 15 14
4 4 3 3 3 2 2 2 3 3 4 4 4 5 4 4 4 3 3 3 2 1 2 3 3 2 3 4 4 4 3 5 3 3 4 4 4 5 5 6 7 5 4 4 5 5 6 5 6 6 6 6 5 6 6 8 8 16 16 16 16 17 17 16 16 14 13 12 12 11 11 11 13 13 14 14 13 13 13 13 14 14 13 12 11
4 4 4 3 3 3 3 3 3 3 3 3 4 5 4 4 4 3 3 4 4 3 2 3 4 4 4 5 5 4 1 4 3 1 1 1 3 4 5 4 4 3 4 5 5 5 4 5 6 5 6 5 6 6 5 6 7 11 15 14 15 14 16 16 16 15 14 12 11 11 11 12 13 13 14 14 13 12 12 12 12 12 11 11 10
4 4 4 4 3 3 3 3 3 3 3 3 3 3 4 4 4 4 4 4 4 3 3 3 5 3 6 4 4 5 1 3 6 1 2 2 2 2 2 2 2 3 4 5 5 5 5 5 5 5 6 6 6 6 6 6 6 7 10 12 13 14 14 15 15 14 14 13 11 11 11 11 11 12 11 11 11 11 10 10 10 10 9 9 8
4 4 4 4 4 4 3 3 3 3 3 2 2 2 3 4 4 4 5 5 5 3 4 4 4 4 5 6 3 4 1 2 4 2 3 3 2 2 1 2 3 3 3 4 5 6 5 6 6 7 6 6 6 6 6 6 6 5 6 9 15 12 12 13 13 13 13 13 12 11 10 10 9 9 9 9 8 8 8 7 8 6 5 5 4
5 5 5 5 5 4 4 4 4 3 3 3 3 3 3 4 3 4 4 4 4 5 5 5 4 5 5 5 5 4 4 4 4 4 5 3 3 2 3 2 1 4 3 6 5 5 4 4 5 6 6 6 6 6 6 6 6 6 4 8 11 10 11 11 11 11 12 11 10 10 9 8 8 8 7 7 6 5 4 1 3 3 3 5 6
5 6 6 6 6 6 5 5 5 5 4 4 4 3 3 2 3 3 4 4 5 6 6 5 5 4 3 5 5 5 6 5 6 6 6 7 2 2 9 4 4 2 4 4 5 3 3 4 6 6 6 7 6 6 7 6 6 6 6 9 8 9 9 9 10 10 10 9 8 7 7 6 6 6 4 4 4 6 6 6 6 7 7 7 8
6 7 7 7 7 6 6 6 6 6 6 5 5 5 5 3 3 4 4 4 4 4 5 6 5 6 5 6 6 6 5 5 5 5 6 6 6 3 6 4 5 4 4 5 5 5 4 4 4 5 5 5 6 7 7 6 5 5 4 12 9 9 9 9 9 8 7 7 6 6 5 5 4 4 3 5 9 9 9 8 8 7 6 8 10
7 7 8 8 8 7 7 7 6 6 5 6 5 5 5 5 5 5 4 4 4 4 5 5 5 5 6 5 5 5 6 5 5 6 7 7 7 6 5 5 5 2 3 4 6 6 5 4 4 5 5 5 6 6 7 6 5 7 6 13 10 9 8 8 7 6 6 6 6 6 6 5 5 4 5 9 11 11 9 8 8 7 9 10 10
6 6 7 8 8 8 7 7 6 6 6 6 6 6 6 6 6 6 6 6 5 5 5 5 6 6 6 6 6 6 6 6 5 5 5 6 6 7 6 5 5 5 5 4 4 6 6 4 5 5 4 4 4 4 5 5 6 5 12 9 9 7 8 7 6 7 8 7 7 7 6 6 6 7 10 11 11 10 10 9 9 9 8 10 11
7 6 7 8 7 7 7 7 7 6 7 6 6 6 3 3 3 4 4 6 6 6 6 6 7 6 7 6 6 6 6 6 6 6 6 6 6 7 6 6 6 6 3 2 6 7 7 6 5 4 3 4 3 3 3 3 3 12 6 9 8 7 7 7 9 9 9 9 9 8 8 8 9 10 10 9 8 9 10 10 10 9 9 8 10
7 7 7 8 7 6 7 7 6 6 6 6 6 7 5 7 6 6 8 9 7 8 7 8 7 7 6 6 6 6 6 6 6 6 6 6 7 8 7 6 7 6 6 7 5 6 8 6 6 1 4 4 3 3 3 4 4 8 4 9 7 8 6 10 12 11 11 10 10 10 10 11 10 9 8 7 7 9 10 10 10 9 10 9 10
7 7 6 8 7 7 7 7 6 6 7 7 6 6 6 6 6 7 7 6 7 8 8 8 7 7 6 6 6 6 6 6 6 6 7 7 7 8 7 7 7 7 6 6 6 7 5 6 4 3 4 5 4 2 3 3 2 8 7 2 8 6 8 11 11 11 11 11 11 11 11 10 10 9 9 9 10 10 10 9 9 9 10 10 10
6 6 6 7 7 7 7 7 7 7 7 7 6 6 6 6 5 6 7 6 6 6 7 8 7 8 8 7 7 7 6 6 6 7 7 7 7 7 7 8 7 8 7 6 7 9 6 6 5 5 3 1 2 3 2 4 4 10 6 3 7 15 11 8 4 3 5 9 11 11 11 10 11 12 12 11 11 11 11 10 10 10 10 10 10
5 5 6 6 7 7 7 8 7 7 7 7 7 6 6 6 6 6 7 6 6 7 7 7 8 9 9 8 8 8 7 7 7 7 7 7 7 7 7 7 8 8 7 7 6 7 7 6 5 5 4 5 3 1 3 2 4 10 4 3 10 7 8 9 10 10 11 10 11 12 12 12 12 12 12 12 12 12 11 11 11 11 11 11 10
5 5 6 6 6 7 7 7 7 7 6 6 7 7 6 6 7 7 7 6 6 6 6 7 7 7 8 10 8 8 8 7 8 7 7 7 8 7 8 8 7 8 9 9 7 6 6 7 6 2 5 6 4 2 4 5 10 6 4 7 10 9 8 12 13 12 8 9 12 14 14 13 13 13 12 12 12 12 12 12 12 11 11 11 11
5 5 6 6 7 7 7 7 7 7 7 7 7 7 6 6 6 6 6 6 7 6 6 7 7 7 7 7 8 8 8 8 8 8 8 8 8 8 8 8 8 9 9 9 9 6 5 5 6 5 5 3 5 5 5 10 10 10 8 10 9 10 13 13 12 10 11 12 12 13 13 14 14 13 13 12 13 13 12 12 12 11 11 11 11
7 7 7 7 7 7 7 7 6 6 6 6 6 6 6 5 5 5 6 6 6 7 7 7 6 6 7 9 9 8 8 8 8 8 8 8 8 8 8 8 8 9 9 9 10 7 5 6 5 7 7 7 8 6 3 7 8 9 11 11 10 13 15 11 14 12 9 11 12 12 12 13 14 13 13 13 13 13 12 12 12 11 11 9 9
7 8 7 8 8 8 7 7 7 6 6 6 6 6 6 5 4 5 6 7 7 7 7 6 6 7 7 8 7 8 7 7 6 8 7 7 8 9 9 8 8 9 9 10 11 10 4 5 6 6 7 6 7 7 5 4 6 7 9 9 12 15 10 7 10 10 9 10 11 11 12 13 13 13 13 13 13 13 13 13 12 11 9 9 8
7 7 8 8 7 7 7 7 7 6 6 6 5 5 6 6 6 6 6 7 7 6 6 7 8 7 8 9 9 8 8 8 7 9 7 8 9 10 9 8 8 8 9 9 11 10 9 6 5 7 7 8 9 9 6 8 7 7 8 9 12 11 11 9 8 10 10 9 10 10 11 11 11 11 13 14 14 13 13 12 11 11 11 10 9
9 8 9 7 7 7 6 7 6 6 6 6 5 5 6 6 6 5 6 6 7 7 6 8 8 7 7 9 9 9 8 8 8 9 10 8 9 11 9 9 9 9 9 10 10 10 11 7 7 6 7 8 9 10 5 9 4 5 8 8 9 9 10 9 8 9 10 8 8 9 10 11 11 11 12 14 13 14 13 11 11 11 10 9 8
10 9 9 9 9 8 7 6 6 6 6 6 5 5 6 6 6 5 4 4 4 5 6 6 6 6 8 8 9 9 6 7 11 9 7 8 7 6 10 9 8 9 9 9 10 11 11 9 9 8 7 7 9 6 9 11 9 9 9 8 9 9 9 10 8 8 9 10 11 11 11 11 11 11 13 14 14 14 13 12 12 11 11 10 9
10 9 9 9 8 8 8 7 7 7 6 6 6 5 6 5 5 6 5 5 4 3 4 6 7 6 6 8 8 8 8 10 9 8 9 8 9 9 8 6 7 9 9 7 11 10 10 10 9 8 6 7 7 7 10 10 10 10 8 9 8 9 10 10 9 9 8 10 11 12 11 10 11 12 13 13 14 14 13 12 12 11 10 10 9
9 9 8 8 8 8 7 8 8 7 6 6 6 6 4 3 4 2 2 2 2 3 3 4 5 6 7 7 8 9 9 9 9 7 9 10 11 10 9 8 7 9 8 6 6 11 12 12 10 9 8 8 8 7 7 6 9 8 9 10 10 10 10 9 8 8 12 10 10 10 10 11 11 12 13 13 13 14 13 12 12 11 10 10 9
9 8 8 8 7 8 8 8 7 7 7 6 6 6 6 5 4 3 2 2 3 3 4 4 5 5 6 8 8 9 9 9 9 10 9 10 9 8 10 10 8 6 6 8 8 9 9 12 11 10 10 9 8 8 8 7 7 7 8 9 9 10 11 10 8 8 9 7 7 6 6 8 9 10 12 12 12 13 12 11 12 10 10 9 9
10 9 9 9 8 8 8 7 7 7 7 6 6 6 6 6 5 4 3 3 3 3 4 5 5 6 6 7 8 8 8 9 10 10 10 11 9 11 10 10 9 10 6 7 8 10 10 10 11 11 10 10 9 9 8 7 7 8 9 8 9 9 10 11 11 9 9 9 8 8 7 8 10 10 9 10 10 11 11 10 11 10 9 9 8
10 11 10 10 8 8 7 7 7 6 6 6 7 7 7 6 4 4 4 3 3 4 4 5 6 6 7 7 8 8 8 8 8 9 9 8 8 10 9 8 10 8 10 9 8 10 8 9 11 10 10 10 9 9 8 5 8 9 10 11 11 12 11 11 10 11 10 10 10 9 8 10 7 7 8 7 8 9 10 9 9 10 9 8 8
9 10 10 10 9 9 8 8 7 7 7 7 7 7 7 5 4 4 3 4 4 5 5 6 6 7 7 7 7 7 8 9 9 8 8 7 7 7 7 8 8 9 9 8 8 10 9 9 10 10 9 8 8 11 10 10 11 10 10 10 10 11 11 10 9 9 10 11 10 10 9 10 9 9 8 8 7 8 8 10 9 9 8 8 8
9 9 10 10 10 9 9 9 8 7 7 6 6 4 1 3 5 4 4 4 5 5 5 6 7 7 8 8 8 11 10 9 9 10 12 11 10 10 11 9 10 10 10 9 9 9 10 10 11 10 10 10 11 12 10 10 10 8 8 11 11 11 12 10 9 9 10 11 11 10 10 9 10 9 9 9 8 9 9 9 9 9 9 9 9
10 10 10 10 10 9 9 9 9 7 7 6 11 10 7 2 4 4 4 5 5 5 6 6 7 7 7 9 10 12 11 11 12 15 15 15 15 14 13 13 10 10 11 12 11 10 9 10 11 10 10 12 12 10 12 10 11 11 9 10 10 11 13 13 13 8 8 10 10 9 9 10 10 11 10 9 10 9 9 8 13 13 13 10 10
6 9 10 11 11 10 8 9 9 8 8 10 13 11 10 9 6 5 5 5 5 6 6 6 6 6 7 8 9 9 9 10 10 9 13 16 16 15 15 13 12 13 13 12 12 11 11 11 12 11 11 12 13 11 8 10 11 10 10 9 12 13 14 14 11 13 11 12 10 9 8 9 9 9 10 10 10 10 6 11 15 14 14 12 11
10 11 11 11 11 10 9 9 9 9 7 12 13 13 12 11 10 7 6 6 6 6 6 6 7 7 7 7 8 8 8 11 10 10 10 9 14 17 15 16 15 15 16 17 16 14 12 13 12 13 12 12 14 12 10 10 6 10 8 9 11 12 13 14 13 10 11 13 11 10 11 11 10 9 8 9 11 6 7 11 13 13 13 13 12
12 11 11 10 9 10 10 10 9 8 8 12 14 14 12 12 10 8 7 7 7 7 8 7 7 7 7 8 8 8 9 10 9 9 9 9 9 7 9 9 10 13 17 19 18 19 17 14 14 15 14 13 13 11 10 4 8 9 7 8 9 11 14 15 12 9 11 14 15 12 9 10 11 9 10 9 10 7 6 9 11 11 13 13 12
11 11 12 11 8 10 10 9 9 8 6 14 14 14 13 11 11 8 7 8 8 8 8 8 8 8 8 8 8 9 9 9 9 5 7 9 8 8 10 10 10 11 10 10 12 11 11 12 15 16 16 15 15 15 14 8 4 6 7 12 13 12 9 4 7 7 9 11 8 7 9 8 7 7 4 5 5 6 5 6 7 11 12 14 12
11 10 11 9 11 13 11 10 9 10 6 14 14 14 13 12 10 7 8 9 9 9 9 9 9 8 8 8 8 9 10 10 8 4 3 7 9 10 11 11 11 11 11 11 11 12 11 11 12 14 14 14 12 13 12 11 8 5 6 8 6 5 9 9 8 9 10 10 12 12 7 9 6 6 5 4 5 6 4 3 5 6 9 12 13
10 12 11 10 11 10 10 10 10 10 7 11 14 13 13 12 9 8 8 8 9 10 10 11 11 11 10 10 10 8 9 10 2 6 5 3 8 11 11 11 11 11 11 10 12 15 17 17 17 17 17 18 17 14 13 10 8 7 5 3 5 6 8 10 9 9 11 11 9 10 9 11 9 8 8 5 6 6 5 4 5 4 6 9 11
12 11 11 10 6 7 10 13 12 9 8 11 15 14 13 14 12 9 8 8 9 11 11 11 10 11 12 9 9 10 10 9 12 8 6 2 8 11 11 12 12 12 11 10 9 9 15 18 18 19 19 17 16 16 14 13 12 8 9 10 9 9 10 11 12 12 10 12 11 11 11 10 10 8 9 5 5 3 6 7 7 5 5 6 7
11 10 10 10 11 9 8 10 11 12 9 10 14 15 14 15 11 8 8 9 11 11 10 10 11 11 11 9 12 11 10 10 4 3 3 3 8 11 11 11 12 13 11 11 11 11 10 10 10 12 14 14 13 11 12 15 15 12 11 12 10 12 12 13 11 8 7 7 8 13 10 9 11 10 12 9 6 3 4 6 8 6 6 5 5
Wind_Direction
155 155 156 154 149 145 149 132 134 128 153 169 178 182 190 200 190 192 181 161 188 151 152 100 126 137 157 160 178 153 152 139 118 120 88 94 112 143 162 188 195 200 226 208 185 216 174 220 204 166 182 204 180 190 167 176 184 185 196 196 198 208 215 219 223 228 233 226 234 248 265 269 272 278 277 279 295 290 288 294 297 295 296 302 299
158 160 160 152 143 146 143 139 123 130 150 158 173 186 194 198 204 224 170 169 205 150 203 151 157 162 185 141 139 180 142 146 148 141 122 119 83 134 161 182 200 197 218 225 209 207 182 210 200 175 190 201 203 189 199 201 195 203 204 207 209 216 225 227 229 232 233 237 239 245 257 264 266 267 273 277 268 282 309 311 305 304 309 310 310
158 175 154 160 151 157 156 142 140 135 145 145 171 183 199 200 241 270 261 243 243 127 241 177 163 201 154 156 183 162 180 156 146 152 145 146 146 185 156 179 197 205 209 220 234 210 213 201 203 194 194 204 208 203 209 214 226 193 205 208 212 216 221 231 234 238 239 241 245 252 257 260 256 254 257 262 269 272 284 302 291 300 305 300 293
165 170 165 164 158 156 152 152 140 149 149 142 155 157 201 190 194 203 241 257 255 264 234 229 200 193 165 177 182 178 189 168 165 163 169 146 154 176 149 173 186 204 208 216 228 235 244 213 207 206 207 206 209 221 213 220 225 232 200 208 212 215 219 222 230 237 242 243 247 251 254 256 253 250 252 259 263 261 268 276 277 275 271 271 278
169 184 162 170 150 154 155 149 150 139 132 129 132 166 183 194 207 235 239 238 242 222 241 213 194 209 199 157 186 190 189 202 177 185 183 181 186 182 191 175 179 194 203 208 216 228 233 231 217 214 219 209 211 213 221 222 225 227 217 206 211 216 219 222 226 232 237 240 242 245 249 250 251 253 253 252 252 257 258 262 270 268 265 267 270
167 167 190 161 160 173 157 160 145 145 129 152 169 175 195 203 255 233 207 241 211 191 208 192 179 189 212 185 175 181 185 199 212 182 202 211 202 202 208 186 182 174 190 198 209 215 223 230 234 226 230 238 215 216 218 227 228 221 230 217 214 216 218 221 223 228 233 236 239 241 244 246 249 252 253 252 251 253 254 256 262 268 271 273 274
172 165 188 173 169 172 170 165 156 166 156 169 201 188 197 227 216 248 230 239 235 190 224 164 167 202 180 215 212 192 181 217 204 234 186 207 213 211 205 222 192 197 179 177 197 207 212 220 228 233 233 229 238 225 229 229 230 227 227 233 233 217 215 217 222 225 228 232 236 238 241 244 246 249 249 249 250 251 251 252 257 264 271 274 274
184 180 179 195 182 174 184 155 158 171 165 197 233 210 193 213 210 236 254 253 286 192 194 179 193 228 175 220 203 251 236 225 209 202 222 207 207 201 211 206 201 209 210 211 173 189 201 209 219 228 233 234 240 248 234 233 239 234 229 235 233 231 202 211 217 221 225 228 232 234 238 241 243 245 246 247 248 250 253 254 256 261 266 270 273
192 192 206 211 198 193 174 160 192 183 192 197 228 238 203 161 269 168 242 253 251 223 169 174 205 215 212 234 235 246 257 248 228 220 218 220 210 207 211 211 208 216 223 224 213 180 184 201 210 220 225 232 234 236 241 241 241 235 230 236 246 250 209 204 211 217 220 225 229 233 236 238 241 242 244 246 246 248 252 258 260 258 260 264 268
192 194 210 221 219 212 190 174 202 195 208 212 219 230 229 226 160 225 258 274 284 330 314 196 264 281 259 229 253 263 257 246 244 237 235 220 214 220 212 212 205 223 221 217 224 210 188 188 201 210 220 225 227 230 235 237 239 240 235 236 241 242 237 203 208 214 219 222 227 231 234 236 238 240 243 244 246 247 252 260 262 263 262 264 266
195 207 195 218 215 215 234 197 220 206 212 224 224 219 227 207 237 174 182 228 195 270 354 347 259 262 265 266 258 237 247 252 252 240 232 239 234 228 227 207 211 208 216 223 229 232 222 212 194 208 210 214 222 224 227 231 233 235 238 240 241 244 246 245 218 216 217 221 225 229 232 234 237 241 242 244 245 247 249 255 261 266 267 266 264
202 204 213 206 221 220 206 226 232 226 213 224 232 214 197 211 212 235 217 230 220 226 195 218 230 248 259 270 261 260 251 249 240 245 245 232 230 228 232 219 216 221 221 215 222 217 226 227 234 228 231 195 205 215 220 224 226 230 233 236 237 238 239 238 239 232 219 214 225 228 230 232 234 238 243 245 246 248 249 254 261 264 267 270 273
203 203 210 199 233 221 203 223 228 237 227 227 234 239 222 222 213 218 232 230 235 185 196 287 272 247 237 252 252 244 243 236 238 240 239 235 226 229 234 243 237 225 229 224 222 224 221 226 232 237 228 228 193 205 212 216 221 224 228 232 235 237 238 238 238 237 233 221 219 227 230 229 233 237 243 245 247 250 251 252 258 263 267 274 279
202 209 207 218 227 227 222 219 225 232 239 237 226 214 212 217 226 217 212 240 227 221 30 277 233 276 295 272 267 235 220 229 239 230 245 237 239 238 239 237 233 221 224 229 231 229 233 225 232 232 237 226 226 201 205 212 219 221 224 228 232 235 237 238 238 239 237 236 230 227 227 232 233 237 241 246 248 250 251 250 252 259 270 278 282
196 200 207 215 232 252 245 236 230 232 223 220 213 212 218 219 220 249 213 194 239 163 216 261 282 250 258 291 323 252 55 318 211 218 228 244 247 241 232 239 239 234 215 222 238 234 238 233 226 228 230 238 237 229 222 207 215 202 213 221 227 231 235 239 239 240 240 241 240 240 241 236 242 244 245 247 248 248 249 250 254 265 273 279 284
194 199 207 207 218 236 229 222 222 225 242 227 215 218 208 216 213 230 255 244 211 168 181 239 271 262 218 221 228 275 153 255 250 219 75 224 237 239 215 220 263 239 237 234 241 246 241 235 239 230 235 241 241 238 236 242 190 184 201 212 218 225 231 236 240 243 245 243 245 245 245 250 255 255 255 254 253 250 247 252 260 271 275 281 281
192 213 212 196 212 221 223 213 215 217 226 232 226 225 217 217 217 230 236 261 231 180 209 225 243 247 290 269 240 225 111 256 323 254 180 182 203 209 121 271 206 216 226 237 251 248 240 233 239 241 232 234 238 239 245 240 213 209 197 199 209 215 223 230 236 242 245 248 248 249 252 254 257 259 260 259 258 256 253 257 266 270 273 284 294
196 203 213 213 200 217 223 220 201 204 211 225 220 202 226 229 213 225 230 232 273 228 220 219 252 246 263 280 315 310 301 261 281 234 199 230 221 243 183 204 187 190 216 240 216 233 233 238 221 229 234 235 244 251 243 241 237 227 232 195 194 205 217 225 232 237 241 243 246 246 250 251 250 251 252 257 254 254 256 259 261 279 304 310 313
208 205 208 209 212 217 218 226 220 212 206 222 218 222 222 217 207 217 237 233 227 252 248 245 215 242 246 261 287 271 281 286 286 312 270 116 262 294 254 257 314 260 227 215 216 216 222 249 251 246 232 228 233 244 243 234 227 242 68 102 174 188 206 217 226 231 236 239 240 244 244 243 242 246 251 251 254 234 242 257 89 103 75 65 73
205 216 211 208 212 211 211 216 218 212 213 217 223 221 235 221 220 235 231 241 233 246 254 253 254 257 216 259 244 259 270 273 266 289 301 301 274 2 313 240 236 258 273 294 285 286 234 237 248 235 228 233 235 231 240 242 227 208 199 172 163 184 196 214 220 226 233 234 237 233 234 231 238 248 230 239 105 99 101 107 103 88 83 86 102
212 209 214 215 205 208 209 207 206 210 211 218 216 219 228 235 217 226 237 234 240 247 255 257 255 255 238 234 245 251 243 232 257 257 275 279 277 234 221 165 247 226 254 275 282 262 250 245 256 274 260 226 226 235 240 240 228 214 209 157 181 190 203 210 218 222 228 227 212 209 210 203 212 179 181 135 111 106 104 104 98 95 97 110 111
212 215 215 213 211 209 209 211 209 215 224 238 241 226 225 233 231 233 227 239 234 233 239 254 255 262 258 267 258 248 254 254 239 250 246 253 273 285 289 285 275 227 229 260 268 272 256 230 230 244 254 248 224 217 223 231 223 232 167 146 170 188 194 206 210 213 199 185 182 177 163 162 154 153 135 122 114 108 104 101 106 103 106 105 100
203 209 212 216 209 211 214 211 214 217 222 230 234 236 224 219 225 225 230 235 240 232 234 242 250 248 246 244 248 249 257 257 253 243 249 257 259 263 269 261 270 282 262 244 267 276 268 263 251 237 243 241 244 241 228 219 227 89 112 148 159 178 185 189 191 175 168 162 154 148 146 144 142 131 124 117 113 111 108 98 88 88 98 105 106
202 203 205 212 210 209 213 217 214 212 216 222 235 235 215 267 243 244 251 241 237 237 236 231 231 240 239 244 247 252 253 254 260 261 256 256 261 272 274 279 269 266 282 246 264 290 288 264 256 234 226 265 259 236 247 245 176 125 169 147 162 168 170 171 162 156 152 146 143 143 138 134 128 126 120 118 112 106 100 98 94 91 91 94 90
203 210 206 205 207 210 208 211 210 213 220 218 214 226 200 193 214 217 231 238 230 229 232 234 231 234 238 239 249 250 249 253 259 261 258 263 265 271 265 264 271 271 262 258 244 226 248 252 251 185 280 261 234 227 227 216 231 154 207 145 158 158 170 159 154 149 147 146 144 140 139 134 134 132 129 127 121 111 110 111 111 107 104 101 97
201 210 202 201 208 214 214 216 217 211 207 210 214 211 217 221 217 225 233 234 240 233 236 240 238 238 246 250 246 245 253 258 254 248 249 250 251 253 264 262 263 265 265 261 285 268 233 241 244 237 242 237 239 173 213 244 194 144 196 185 139 154 153 148 150 152 150 149 150 149 149 150 150 147 138 132 128 125 122 120 114 108 103 100 97
210 204 207 210 215 219 221 223 220 215 210 204 198 200 198 207 213 222 223 225 232 235 241 239 238 234 235 241 247 247 248 247 245 248 249 246 251 255 258 263 251 249 256 248 235 242 262 268 290 272 238 298 261 223 206 227 99 135 157 192 102 58 60 63 68 116 148 160 158 155 152 146 138 133 133 134 132 128 125 119 111 111 104 99 95
208 205 201 211 213 218 218 224 225 225 222 222 219 215 199 198 205 206 217 213 223 230 237 238 240 240 237 235 240 243 239 237 239 245 250 251 246 247 248 252 265 269 261 252 247 254 243 245 242 272 340 288 240 188 163 173 167 132 160 129 96 132 136 140 144 156 181 177 156 143 139 136 133 133 135 133 130 127 124 121 117 112 106 100 93
205 206 210 210 215 215 219 220 222 219 218 219 224 224 215 210 210 205 215 213 216 226 235 241 241 240 241 238 237 239 240 239 238 239 244 246 247 249 245 247 253 262 260 264 249 244 236 223 241 177 231 266 273 199 193 209 84 98 93 104 139 149 148 151 169 160 152 156 150 147 143 140 139 139 137 136 131 127 124 121 117 111 106 98 92
207 202 208 209 212 214 223 224 223 225 227 227 231 232 229 230 230 230 226 220 217 216 227 237 243 242 242 238 234 239 238 240 243 237 236 240 243 246 248 246 243 248 255 264 270 258 255 217 237 235 184 257 284 250 236 79 151 139 131 133 140 157 157 162 147 144 164 157 154 151 150 147 145 143 142 138 133 129 125 121 116 110 103 97 90
205 202 205 205 205 205 213 219 221 226 229 229 228 231 232 230 223 235 234 236 237 230 225 230 235 238 245 245 238 239 240 240 240 244 238 240 245 242 245 251 247 246 255 259 265 256 250 243 239 247 247 200 225 247 106 128 131 126 125 134 141 146 156 159 157 165 158 154 153 153 152 151 149 149 146 139 134 128 124 119 113 104 96 82 78
204 207 208 208 206 205 205 207 209 216 219 223 224 230 228 225 215 227 232 238 243 242 234 229 236 245 250 254 259 249 243 246 249 257 246 248 249 249 245 240 244 246 249 254 255 261 221 240 253 258 243 229 236 250 95 115 109 123 136 141 150 151 153 149 156 150 156 161 158 156 154 153 152 148 143 138 131 127 122 116 109 100 92 85 78
204 207 213 213 213 213 209 208 208 201 211 216 219 228 228 227 222 222 226 234 239 242 242 236 235 227 234 239 240 245 250 248 235 239 244 247 245 246 247 246 246 244 244 248 256 261 256 234 245 255 266 269 247 239 165 142 160 150 145 158 158 165 162 168 163 152 158 166 162 156 152 142 136 135 137 136 128 120 115 111 110 108 102 96 89
206 205 208 202 207 208 210 210 208 207 209 212 216 224 232 231 227 226 235 238 246 249 245 251 246 246 248 250 248 246 236 252 266 262 237 227 239 246 240 239 242 244 241 251 252 259 262 252 247 240 243 237 254 263 203 141 175 148 169 173 175 175 179 175 165 167 157 158 152 139 132 131 132 136 134 126 119 118 118 118 112 107 103 96 90
199 200 197 190 190 195 197 202 204 205 208 211 208 221 230 236 233 222 231 241 258 260 260 259 260 263 261 255 250 250 239 233 241 248 273 266 265 266 253 245 242 245 249 246 256 261 261 259 253 251 249 250 256 246 258 151 167 178 174 190 180 176 181 180 169 156 149 154 147 136 135 135 133 130 127 128 128 126 124 121 118 113 110 106 102
196 197 193 191 188 192 193 194 195 194 203 203 208 222 225 232 236 236 237 247 260 281 293 282 284 277 264 261 258 250 242 246 249 248 239 246 240 236 251 261 259 255 255 248 248 256 267 269 259 259 248 253 243 232 245 133 173 181 182 174 182 181 175 180 172 170 146 146 139 136 135 135 135 135 136 137 135 131 128 127 124 120 116 111 105
197 191 191 191 187 191 185 192 186 186 191 192 195 198 199 223 231 211 224 242 264 277 286 288 288 285 288 283 278 268 265 264 257 249 252 237 247 245 231 247 253 253 244 238 259 254 255 260 266 265 260 252 256 259 251 203 183 178 170 169 179 179 174 177 177 133 118 131 124 129 135 140 144 145 144 143 140 135 134 133 129 126 122 116 112
191 190 190 188 193 188 185 187 183 178 185 189 204 207 201 201 195 195 227 250 271 284 283 282 281 283 281 282 281 285 276 263 261 261 258 258 256 258 253 245 245 247 251 253 250 257 258 261 259 264 260 256 248 242 240 223 198 179 168 166 180 175 170 175 161 133 163 153 155 136 130 140 145 149 148 147 146 140 139 139 134 132 128 123 120
187 190 193 191 194 197 186 181 183 182 181 182 199 203 203 203 199 199 204 231 251 269 280 279 280 278 277 276 278 277 277 276 271 266 263 260 253 253 253 254 243 246 253 253 249 245 244 255 260 260 260 256 253 246 230 212 202 193 183 166 181 178 184 183 172 165 162 155 134 139 154 151 151 159 150 150 149 143 142 145 139 135 133 131 124
190 194 193 193 188 199 187 188 187 183 175 185 192 200 205 198 202 200 206 226 242 251 261 269 273 275 274 274 271 270 269 265 264 275 280 283 296 276 264 256 252 245 248 245 249 250 245 252 254 253 252 255 262 251 240 193 211 200 187 180 182 184 186 186 168 161 162 150 154 160 133 125 140 111 141 142 154 150 147 149 146 138 138 136 134
197 200 195 195 190 195 191 193 190 181 191 190 193 200 197 195 205 207 229 248 268 274 275 277 278 276 274 272 271 270 273 284 327 321 304 308 295 285 282 280 276 270 261 259 252 252 256 255 252 250 254 262 247 252 232 219 211 215 181 189 203 198 187 178 170 168 159 156 161 161 162 165 158 165 164 169 164 168 172 180 145 147 143 142 143
197 203 201 200 195 197 197 191 193 188 194 196 151 140 320 231 202 219 230 241 251 266 276 282 281 279 279 276 270 266 257 261 272 279 281 279 269 265 266 277 276 268 265 269 267 262 256 257 256 250 242 240 246 242 239 226 216 192 193 203 209 188 183 177 166 171 164 162 161 167 171 173 164 164 175 166 172 183 171 186 176 170 150 153 151
198 202 204 201 201 202 202 197 190 196 195 183 143 167 171 232 250 240 247 253 253 263 270 277 282 284 280 277 277 274 260 225 223 227 239 233 232 238 244 255 271 273 266 262 260 260 267 255 254 254 252 253 246 246 248 240 229 196 204 203 208 182 181 176 179 170 176 171 167 163 172 175 168 168 176 171 168 194 180 194 150 148 149 157 157
209 216 208 209 204 202 206 203 198 199 204 146 160 169 183 190 223 246 243 250 254 258 267 272 279 285 284 280 278 277 274 275 286 246 221 223 229 227 234 242 239 243 247 256 258 258 256 260 257 254 255 252 254 248 246 245 237 213 208 200 216 191 187 189 184 181 182 176 165 168 168 171 180 173 176 177 172 191 186 133 143 148 152 156 160
193 214 213 211 210 205 200 208 208 203 214 149 169 175 183 191 202 233 245 252 256 260 264 266 274 279 283 282 278 269 270 261 255 250 262 242 209 219 225 228 235 233 234 235 244 250 259 262 266 263 254 257 259 252 246 257 264 244 205 216 210 202 206 207 204 176 157 175 163 170 173 176 184 181 181 170 176 159 106 141 146 149 151 155 157
195 201 212 214 220 213 207 210 211 207 217 157 173 178 183 190 195 212 247 254 257 261 262 263 263 269 272 275 274 270 263 258 256 260 259 259 270 242 232 232 245 229 220 229 231 233 238 250 255 256 260 262 261 263 257 278 270 243 199 219 213 204 209 215 197 161 151 168 177 167 156 168 184 181 183 175 178 156 137 126 150 151 153 152 155
194 198 205 202 209 231 211 210 211 207 202 155 175 179 184 188 190 205 239 247 252 254 255 256 256 260 269 266 267 268 268 267 263 301 290 282 285 278 273 274 270 272 270 245 223 219 223 228 241 250 256 258 261 267 269 273 268 280 245 228 229 211 202 143 98 114 145 169 142 146 172 164 175 176 149 125 90 82 74 112 140 154 154 152 152
200 206 205 194 198 221 216 208 214 217 169 164 172 180 180 188 177 204 232 243 249 255 258 257 258 261 263 262 262 264 264 263 265 124 268 281 275 279 281 277 275 272 267 261 262 275 269 255 239 245 250 260 267 257 267 273 276 282 294 278 249 161 124 156 169 157 161 173 174 163 142 167 180 134 134 98 104 98 99 118 121 154 157 150 149
193 206 203 193 206 216 223 219 216 222 205 171 171 176 179 174 177 217 230 242 250 259 269 273 274 273 272 270 268 271 271 265 288 122 113 192 265 273 275 276 277 276 270 270 239 230 241 254 261 262 263 269 272 271 267 266 256 272 282 262 227 149 172 186 179 173 179 170 181 176 143 158 175 152 144 137 112 120 136 152 145 143 159 154 146
203 201 205 193 192 215 218 226 220 219 224 164 170 170 172 174 191 212 232 241 257 268 271 271 274 276 277 256 254 270 275 268 94 91 91 257 271 273 273 277 279 275 273 270 272 251 218 226 240 249 253 255 254 253 250 243 234 224 244 235 232 209 203 199 196 194 185 174 182 163 157 177 149 140 134 124 110 152 152 149 134 125 132 122 119
206 194 182 189 199 216 221 235 230 222 226 159 166 165 173 179 192 221 234 250 264 272 268 266 268 274 270 250 209 234 257 278 285 283 167 265 279 274 275 279 277 275 274 280 277 278 279 271 245 237 244 249 252 249 242 226 227 221 229 238 236 228 210 207 207 164 163 189 188 170 154 156 156 167 148 132 164 156 162 140 140 155 174 150 137